Location: Cardiff
(53.7833°N, 113.6000°W)
Time: 07:07:10
(UTC+00:00)

NOAA 15 - Visible Passes

Search period start: 03 December 2023 00:00
Search period end: 13 December 2023 00:00
Orbit: 796 x 811 km, 98.6° (Epoch: 02 December)

Date Brightness Start Highest point End Pass type
(mag) Time Alt. Az. Time Alt. Az. Time Alt. Az.
03 Dec 6.0 00:15:22 10° E 00:18:40 17° NE 00:21:58 10° N visible
03 Dec 4.5 01:52:20 10° SSE 01:57:37 71° ENE 02:02:54 10° NNW visible
03 Dec 6.7 03:33:46 10° SW 03:37:54 23° W 03:42:02 10° NW visible
03 Dec 7.4 14:01:29 10° NE 14:04:49 17° E 14:08:06 10° SE visible
04 Dec 4.8 01:27:04 10° SE 01:32:07 47° ENE 01:37:11 10° N visible
04 Dec 6.1 03:07:15 10° SSW 03:12:03 34° W 03:16:52 10° NNW visible
04 Dec 7.9 13:38:07 10° ENE 13:38:47 10° E 13:39:26 10° E visible
05 Dec 5.2 01:02:03 10° ESE 01:06:43 32° ENE 01:11:23 10° N visible
05 Dec 5.3 02:41:08 10° S 02:46:18 52° W 02:51:30 10° NNW visible
05 Dec 6.3 14:49:07 10° NNE 14:53:59 37° E 14:58:50 10° SSE visible
06 Dec 5.7 00:37:20 10° ESE 00:41:24 23° NE 00:45:28 10° N visible
06 Dec 4.6 02:15:20 10° SSE 02:20:39 80° WSW 02:25:59 10° NNW visible
06 Dec 7.2 03:58:14 10° WSW 04:01:16 15° W 04:04:19 10° NW visible
06 Dec 7.1 14:23:53 10° NE 14:28:09 24° E 14:32:23 10° SE visible
07 Dec 6.0 00:12:59 10° E 00:16:10 16° NE 00:19:21 10° NNE visible
07 Dec 4.5 01:49:49 10° SSE 01:55:04 69° ENE 02:00:21 10° NNW visible
07 Dec 6.7 03:31:08 10° SW 03:35:19 23° W 03:39:32 10° NW visible
07 Dec 7.4 13:59:03 10° NE 14:02:13 16° E 14:05:22 10° ESE visible
08 Dec 4.8 01:24:34 10° SE 01:29:36 46° ENE 01:34:37 10° N visible
08 Dec 6.0 03:04:39 10° SSW 03:09:29 36° W 03:14:21 10° NNW visible
09 Dec 5.3 00:59:35 10° ESE 01:04:12 31° ENE 01:08:48 10° N visible
09 Dec 5.2 02:38:33 10° S 02:43:44 55° W 02:48:57 10° NNW visible
09 Dec 6.4 14:46:35 10° NNE 14:51:25 36° E 14:56:12 10° SSE visible
10 Dec 5.7 00:34:54 10° ESE 00:38:53 22° NE 00:42:52 10° N visible
10 Dec 4.6 02:12:47 10° SSE 02:18:05 83° WSW 02:23:25 10° NNW visible
10 Dec 7.2 03:55:30 10° WSW 03:58:41 16° W 04:01:52 10° NW visible
10 Dec 7.1 14:21:23 10° NE 14:25:35 23° E 14:29:43 10° SE visible
11 Dec 6.1 00:10:35 10° E 00:13:39 16° NE 00:16:44 10° NNE visible
11 Dec 4.5 01:47:17 10° SSE 01:52:32 66° ENE 01:57:46 10° NNW visible
11 Dec 6.6 03:28:28 10° SW 03:32:45 24° W 03:37:02 10° NW visible
11 Dec 7.5 13:56:37 10° NE 13:59:38 15° E 14:02:37 10° ESE visible
12 Dec 4.9 01:22:04 10° SE 01:27:03 44° ENE 01:32:02 10° N visible
12 Dec 5.9 03:02:02 10° SSW 03:06:55 37° W 03:11:49 10° NNW visible
